Extreme hitte van: 21-07-2018 07:15 tot: 22-07-2018 23:59 waarschuwing voor: Extreme hitte niveau: Geel info button

Bezoek onze andere website:

Meteotemplate

Home Weather Station

Saratoga


Lokaal brand risico:
CBI


Regionaal brand risico: Meer informatie



Select another period ( hide this area )

Eenheden Periode Custom range Directly to
Metrisch Engels Beide
Dagelijkse Wekelijkse Maandelijkse Jaarlijkse
use both date-selectors for a custom range
previous Dag
With this date

WeatherUnderground graphs for this period ( click here )


Dagelijkse Samenvatting Zaterdag 21 juli 2018
Tijd Temp. ( °C ) Dew pt. ( °C ) Wind ( km/h ) van Windvlaag ( km/h ) Luchtdruk ( hPa ) Humid.( % ) Rainrate ( cm )
Hoog19,2 14,5 0,0 ( 0/0 ) 0,0 1011,4 91 -
Gemiddeld16,9 13,6 0,0 Kalm #91/91 0,0 1010,9 81 -
Laag14,1 12,2 -   0,0 1010,4 68 -
Dagelijkse Tabular details for Zaterdag 21 juli 2018
Tijd Temp. ( °C ) Dew pt. ( °C ) Wind ( km/h ) van Windvlaag ( km/h ) Luchtdruk ( hPa ) Humid.( % ) Rainrate ( cm )
00:04 19,2 13,1   Kalm   1011,1 68 -
00:09 19,2 13,1   Kalm   1011,4 68 -
00:14 19,2 13,4   Kalm   1011,1 69 -
00:19 19,1 13,3   Kalm   1011,1 69 -
00:24 19,2 13,1   Kalm   1011,4 68 -
00:29 19,2 13,4   Kalm   1011,4 69 -
00:34 19,1 13,5   Kalm   1011,4 70 -
00:39 19,1 13,5   Kalm   1011,4 70 -
00:44 19,0 13,4   Kalm   1011,4 70 -
00:49 18,9 13,5   Kalm   1011,1 71 -
00:54 18,9 13,5   Kalm   1011,4 71 -
00:59 18,9 13,7   Kalm   1011,4 72 -
01:04 18,9 13,5   Kalm   1011,1 71 -
01:09 18,9 13,7   Kalm   1011,4 72 -
01:14 18,9 13,7   Kalm   1011,4 72 -
01:19 18,9 13,7   Kalm   1011,4 72 -
01:24 18,9 14,0   Kalm   1011,4 73 -
01:29 18,8 13,9   Kalm   1011,4 73 -
01:34 18,8 13,9   Kalm   1011,4 73 -
01:39 18,8 13,9   Kalm   1011,4 73 -
01:44 18,7 14,0   Kalm   1011,4 74 -
01:49 18,7 14,0   Kalm   1011,4 74 -
01:54 18,7 14,0   Kalm   1011,4 74 -
01:59 18,6 14,1   Kalm   1011,4 75 -
02:04 18,6 14,1   Kalm   1011,4 75 -
02:09 18,4 14,3   Kalm   1011,4 77 -
02:14 18,4 14,1   Kalm   1011,4 76 -
02:19 18,3 14,2   Kalm   1011,4 77 -
02:24 18,3 14,2   Kalm   1011,1 77 -
02:29 18,2 14,1   Kalm   1011,1 77 -
02:34 18,1 14,2   Kalm   1011,1 78 -
02:39 18,1 14,2   Kalm   1011,1 78 -
02:44 17,9 14,2   Kalm   1011,1 79 -
02:49 17,9 14,2   Kalm   1011,1 79 -
02:54 17,8 14,1   Kalm   1011,1 79 -
02:59 17,7 14,2   Kalm   1011,1 80 -
03:04 17,6 14,3   Kalm   1011,1 81 -
03:09 17,6 14,3   Kalm   1010,7 81 -
03:14 17,5 14,2   Kalm   1010,7 81 -
03:19 17,4 14,1   Kalm   1010,7 81 -
03:24 17,4 14,1   Kalm   1010,7 81 -
03:29 17,3 14,2   Kalm   1010,7 82 -
03:34 17,3 14,2   Kalm   1010,7 82 -
03:39 17,2 13,9   Kalm   1010,7 81 -
03:44 17,1 14,0   Kalm   1010,7 82 -
03:49 17,1 14,0   Kalm   1010,7 82 -
03:54 16,9 14,0   Kalm   1010,7 83 -
03:59 16,8 13,9   Kalm   1010,7 83 -
04:04 16,7 14,0   Kalm   1010,7 84 -
04:09 16,7 14,0   Kalm   1010,7 84 -
04:14 16,6 13,9   Kalm   1010,7 84 -
04:19 16,6 13,9   Kalm   1010,7 84 -
04:24 16,6 13,9   Kalm   1010,7 84 -
04:29 16,5 13,8   Kalm   1010,7 84 -
04:34 16,4 13,9   Kalm   1010,7 85 -
04:39 16,4 13,9   Kalm   1010,7 85 -
04:44 16,3 13,8   Kalm   1010,7 85 -
04:49 16,3 13,8   Kalm   1010,7 85 -
04:54 16,2 13,7   Kalm   1010,7 85 -
04:59 16,2 13,7   Kalm   1010,7 85 -
05:04 16,0 13,5   Kalm   1010,7 85 -
05:09 15,9 13,4   Kalm   1010,7 85 -
05:14 15,8 13,3   Kalm   1010,4 85 -
05:19 15,7 13,4   Kalm   1010,4 86 -
05:24 15,5 13,0   Kalm   1010,4 85 -
05:29 15,4 13,1   Kalm   1010,4 86 -
05:34 15,2 12,9   Kalm   1010,4 86 -
05:39 15,1 13,0   Kalm   1010,4 87 -
05:44 14,9 12,8   Kalm   1010,7 87 -
05:49 14,8 12,7   Kalm   1010,7 87 -
05:54 14,7 12,6   Kalm   1010,7 87 -
05:59 14,5 12,4   Kalm   1010,7 87 -
06:04 14,4 12,4   Kalm   1010,7 88 -
06:09 14,3 12,3   Kalm   1010,7 88 -
06:14 14,2 12,2   Kalm   1010,7 88 -
06:19 14,2 12,4   Kalm   1010,7 89 -
06:24 14,1 12,3   Kalm   1010,7 89 -
06:29 14,1 12,3   Kalm   1010,7 89 -
06:34 14,2 12,6   Kalm   1010,7 90 -
06:39 14,2 12,6   Kalm   1010,7 90 -
06:44 14,2 12,6   Kalm   1010,7 90 -
06:49 14,3 12,7   Kalm   1010,7 90 -
06:54 14,4 12,9   Kalm   1010,7 91 -
06:59 14,6 13,0   Kalm   1010,7 90 -
07:04 14,7 13,1   Kalm   1011,1 90 -
07:09 14,9 13,3   Kalm   1011,1 90 -
07:14 15,0 13,4   Kalm   1011,1 90 -
07:19 15,1 13,5   Kalm   1011,1 90 -
07:24 15,4 13,8   Kalm   1011,1 90 -
07:29 15,8 14,2   Kalm   1010,7 90 -
07:34 16,1 14,5   Kalm   1011,1 90 -
Dagelijkse Samenvatting Zaterdag 21 juli 2018
Tijd Temp. ( °C ) Dew pt. ( °C ) Wind ( km/h ) van Windvlaag ( km/h ) Luchtdruk ( hPa ) Humid.( % ) Rainrate ( cm )
Hoog19,2 14,5 0,0 ( 0/0 ) 0,0 1011,4 91 -
Gemiddeld16,9 13,6 0,0 Kalm #91/91 0,0 1010,9 81 -
Laag14,1 12,2 -   0,0 1010,4 68 -
Dagelijkse Tabular details for Zaterdag 21 juli 2018
Tijd Temp. ( °C ) Dew pt. ( °C ) Wind ( km/h ) van Windvlaag ( km/h ) Luchtdruk ( hPa ) Humid.( % ) Rainrate ( cm )
00:04 19,2 13,1   Kalm   1011,1 68 -
00:09 19,2 13,1   Kalm   1011,4 68 -
00:14 19,2 13,4   Kalm   1011,1 69 -
00:19 19,1 13,3   Kalm   1011,1 69 -
00:24 19,2 13,1   Kalm   1011,4 68 -
00:29 19,2 13,4   Kalm   1011,4 69 -
00:34 19,1 13,5   Kalm   1011,4 70 -
00:39 19,1 13,5   Kalm   1011,4 70 -
00:44 19,0 13,4   Kalm   1011,4 70 -
00:49 18,9 13,5   Kalm   1011,1 71 -
00:54 18,9 13,5   Kalm   1011,4 71 -
00:59 18,9 13,7   Kalm   1011,4 72 -
01:04 18,9 13,5   Kalm   1011,1 71 -
01:09 18,9 13,7   Kalm   1011,4 72 -
01:14 18,9 13,7   Kalm   1011,4 72 -
01:19 18,9 13,7   Kalm   1011,4 72 -
01:24 18,9 14,0   Kalm   1011,4 73 -
01:29 18,8 13,9   Kalm   1011,4 73 -
01:34 18,8 13,9   Kalm   1011,4 73 -
01:39 18,8 13,9   Kalm   1011,4 73 -
01:44 18,7 14,0   Kalm   1011,4 74 -
01:49 18,7 14,0   Kalm   1011,4 74 -
01:54 18,7 14,0   Kalm   1011,4 74 -
01:59 18,6 14,1   Kalm   1011,4 75 -
02:04 18,6 14,1   Kalm   1011,4 75 -
02:09 18,4 14,3   Kalm   1011,4 77 -
02:14 18,4 14,1   Kalm   1011,4 76 -
02:19 18,3 14,2   Kalm   1011,4 77 -
02:24 18,3 14,2   Kalm   1011,1 77 -
02:29 18,2 14,1   Kalm   1011,1 77 -
02:34 18,1 14,2   Kalm   1011,1 78 -
02:39 18,1 14,2   Kalm   1011,1 78 -
02:44 17,9 14,2   Kalm   1011,1 79 -
02:49 17,9 14,2   Kalm   1011,1 79 -
02:54 17,8 14,1   Kalm   1011,1 79 -
02:59 17,7 14,2   Kalm   1011,1 80 -
03:04 17,6 14,3   Kalm   1011,1 81 -
03:09 17,6 14,3   Kalm   1010,7 81 -
03:14 17,5 14,2   Kalm   1010,7 81 -
03:19 17,4 14,1   Kalm   1010,7 81 -
03:24 17,4 14,1   Kalm   1010,7 81 -
03:29 17,3 14,2   Kalm   1010,7 82 -
03:34 17,3 14,2   Kalm   1010,7 82 -
03:39 17,2 13,9   Kalm   1010,7 81 -
03:44 17,1 14,0   Kalm   1010,7 82 -
03:49 17,1 14,0   Kalm   1010,7 82 -
03:54 16,9 14,0   Kalm   1010,7 83 -
03:59 16,8 13,9   Kalm   1010,7 83 -
04:04 16,7 14,0   Kalm   1010,7 84 -
04:09 16,7 14,0   Kalm   1010,7 84 -
04:14 16,6 13,9   Kalm   1010,7 84 -
04:19 16,6 13,9   Kalm   1010,7 84 -
04:24 16,6 13,9   Kalm   1010,7 84 -
04:29 16,5 13,8   Kalm   1010,7 84 -
04:34 16,4 13,9   Kalm   1010,7 85 -
04:39 16,4 13,9   Kalm   1010,7 85 -
04:44 16,3 13,8   Kalm   1010,7 85 -
04:49 16,3 13,8   Kalm   1010,7 85 -
04:54 16,2 13,7   Kalm   1010,7 85 -
04:59 16,2 13,7   Kalm   1010,7 85 -
05:04 16,0 13,5   Kalm   1010,7 85 -
05:09 15,9 13,4   Kalm   1010,7 85 -
05:14 15,8 13,3   Kalm   1010,4 85 -
05:19 15,7 13,4   Kalm   1010,4 86 -
05:24 15,5 13,0   Kalm   1010,4 85 -
05:29 15,4 13,1   Kalm   1010,4 86 -
05:34 15,2 12,9   Kalm   1010,4 86 -
05:39 15,1 13,0   Kalm   1010,4 87 -
05:44 14,9 12,8   Kalm   1010,7 87 -
05:49 14,8 12,7   Kalm   1010,7 87 -
05:54 14,7 12,6   Kalm   1010,7 87 -
05:59 14,5 12,4   Kalm   1010,7 87 -
06:04 14,4 12,4   Kalm   1010,7 88 -
06:09 14,3 12,3   Kalm   1010,7 88 -
06:14 14,2 12,2   Kalm   1010,7 88 -
06:19 14,2 12,4   Kalm   1010,7 89 -
06:24 14,1 12,3   Kalm   1010,7 89 -
06:29 14,1 12,3   Kalm   1010,7 89 -
06:34 14,2 12,6   Kalm   1010,7 90 -
06:39 14,2 12,6   Kalm   1010,7 90 -
06:44 14,2 12,6   Kalm   1010,7 90 -
06:49 14,3 12,7   Kalm   1010,7 90 -
06:54 14,4 12,9   Kalm   1010,7 91 -
06:59 14,6 13,0   Kalm   1010,7 90 -
07:04 14,7 13,1   Kalm   1011,1 90 -
07:09 14,9 13,3   Kalm   1011,1 90 -
07:14 15,0 13,4   Kalm   1011,1 90 -
07:19 15,1 13,5   Kalm   1011,1 90 -
07:24 15,4 13,8   Kalm   1011,1 90 -
07:29 15,8 14,2   Kalm   1010,7 90 -
07:34 16,1 14,5   Kalm   1011,1 90 -

Download your copy of this data-set  here

Our weather-data as stored at Weather Underground. Script ontwikkeld door Jim McMurry. Aangepast voor de template door Leuven-Template.eu

U vindt ons ook hier:

UK Metoffice

European Weather Network

WeatherCloud

Weather Underground

Benelux Weer Netwerk

AWEKAS

Citizen Weather Observer Program (CWOP)

Apparatuur in gebruik:

Weerstation
Davis VP2

Weerprogramma
Meteobridge

Davis VP2

Meteobridge